Wind_Speed
53 56 58 59 60 60 59 60 62 60 56 56 55 54 54 55 56 57 58 58 59 59 60 61 62 63 65 68 69 71 72 74 76 78 81 82 84 88 91 93 94 93 93 93 93 93 93 92 92 91 90 90
55 59 61 62 62 62 62 62 62 60 57 57 57 55 54 55 55 55 56 55 54 54 54 55 57 58 59 62 64 67 67 68 69 72 75 77 79 82 85 89 91 92 92 92 92 93 93 93 93 92 92 91
56 59 61 61 62 63 63 63 61 60 57 57 58 56 54 55 55 55 55 54 52 50 49 50 51 51 52 54 57 61 63 62 62 63 66 69 73 75 77 80 84 88 89 90 90 91 91 92 93 93 93 92
57 59 60 60 62 63 64 63 61 60 59 58 58 57 54 55 57 56 54 53 52 50 50 50 48 49 51 51 52 55 58 59 58 57 59 61 63 66 70 72 74 78 82 84 86 87 88 89 91 91 92 92
59 59 60 60 62 64 64 64 63 62 60 59 59 58 55 55 57 57 55 55 54 52 51 50 48 50 53 54 54 55 56 58 58 58 57 58 59 61 64 67 68 70 73 76 78 80 82 84 86 88 89 89
60 60 60 60 62 65 66 66 65 64 62 61 60 59 58 56 58 59 58 57 57 55 54 53 52 54 57 59 59 59 58 58 59 59 59 59 59 60 63 65 67 68 69 70 71 73 76 78 81 83 84 85
61 61 60 60 62 66 68 68 67 66 65 63 62 62 61 59 59 61 60 60 61 59 59 58 58 60 62 63 63 63 63 62 62 62 62 62 62 62 64 66 67 68 69 69 70 71 73 75 76 78 80 80
63 62 62 61 62 66 69 70 69 69 69 67 65 64 64 62 60 63 63 63 64 64 63 63 63 63 65 66 65 66 66 66 66 66 67 67 67 68 67 68 69 70 71 71 72 72 73 74 75 76 77 78
64 64 63 62 63 66 70 71 71 72 72 71 69 66 66 65 62 63 65 65 67 68 67 67 66 65 67 68 68 68 69 68 67 67 70 71 72 72 71 71 72 73 74 74 74 74 74 75 75 75 76 76
66 66 65 64 64 65 69 72 74 76 75 74 72 70 69 68 65 64 65 67 69 70 70 70 69 69 69 69 70 71 71 71 69 67 69 72 74 73 72 73 74 75 75 76 75 75 76 76 76 77 76 76
67 68 67 66 65 66 69 73 77 78 77 76 75 73 72 72 70 68 67 69 71 73 73 72 72 72 72 71 71 72 72 72 71 70 70 72 74 75 74 75 75 76 76 77 77 77 78 79 79 80 79 79
69 70 70 69 68 68 69 72 78 80 78 77 77 75 75 76 75 73 70 70 73 76 77 75 76 76 76 75 74 73 74 74 73 73 73 74 75 76 77 77 76 76 77 78 79 80 81 82 83 83 83 82
71 72 72 72 71 72 72 73 76 80 79 78 79 78 77 77 77 76 75 73 74 78 81 81 80 80 79 79 78 77 76 76 77 76 75 75 76 77 78 79 79 78 78 79 79 80 81 82 83 84 84 84
72 73 74 74 75 76 76 75 75 77 80 81 81 81 79 77 78 80 79 78 77 79 82 85 85 85 84 84 83 81 80 79 80 80 80 79 79 78 79 80 81 81 81 80 80 80 80 81 81 82 82 82
73 74 75 77 78 78 78 78 77 77 80 83 84 85 83 80 79 81 82 82 82 82 83 86 88 88 88 88 88 86 84 83 82 83 83 84 84 83 82 82 83 83 83 83 83 82 81 81 82 82 82 82
74 75 77 79 79 80 80 81 81 79 79 83 87 88 88 86 83 83 84 85 86 86 86 87 88 90 91 91 91 90 88 86 85 85 85 85 86 87 87 86 86 85 86 86 86 86 85 85 85 85 85 85
76 76 79 81 82 83 84 83 84 83 82 83 86 90 92 92 90 87 86 86 87 88 90 90 90 91 92 92 93 93 93 91 88 87 87 87 87 88 89 90 89 89 89 88 89 89 88 88 88 88 88 89
77 78 80 83 84 84 85 86 86 86 86 85 86 89 94 96 96 94 91 89 88 89 91 93 93 93 93 93 94 95 96 96 94 92 90 89 89 89 90 91 92 92 93 92 92 92 92 91 91 91 91 91
78 78 81 84 85 85 86 88 88 87 88 89 87 88 93 97 99 99 98 95 93 91 92 93 94 95 96 95 95 96 97 97 98 97 96 94 93 92 91 91 92 92 93 94 94 94 95 94 94 93 93 93
78 79 81 83 85 86 89 89 89 89 89 91 91 91 92 96 101 103 102 101 98 96 95 96 96 97 97 98 98 98 98 98 99 100 101 100 99 98 97 96 95 95 95 95 96 96 96 96 96 96 95 95
77 80 81 83 85 86 89 90 90 91 92 92 93 95 95 96 100 105 106 105 104 102 100 99 100 100 100 101 102 102 101 101 101 102 103 103 103 103 103 102 102 101 101 100 100 100 99 99 99 98 98 99
75 78 81 83 85 86 88 90 91 93 94 95 95 96 97 98 99 102 107 109 108 107 106 104 103 103 104 105 105 105 105 104 104 105 105 105 105 106 106 106 107 107 107 107 106 105 104 104 103 101 101 101
73 75 80 83 84 86 88 89 91 93 95 97 97 97 98 101 101 102 105 109 111 111 110 109 108 106 105 107 109 109 108 108 108 108 109 108 108 108 108 109 109 110 110 111 111 111 110 109 108 107 106 105
71 74 78 80 82 85 88 90 91 93 95 97 98 99 101 102 103 104 105 106 109 112 113 113 113 111 109 109 110 111 112 113 113 112 112 112 112 112 112 112 112 113 113 114 114 114 114 114 113 113 112 111
71 73 76 79 80 82 86 90 92 93 95 97 98 100 103 103 103 104 106 106 107 110 113 114 115 116 115 114 113 112 113 115 116 116 116 115 115 115 115 115 116 116 116 116 117 117 117 117 117 116 116 116
71 73 76 78 80 82 85 87 90 92 95 98 99 100 102 103 105 106 107 108 109 110 111 113 115 118 120 119 117 117 117 116 116 118 119 118 118 118 118 118 118 118 118 118 119 120 120 119 119 119 119 118
72 74 76 78 79 82 84 86 88 91 94 97 98 100 102 104 106 107 109 110 111 112 113 113 113 115 119 121 121 122 122 120 118 118 119 119 120 120 119 119 119 120 120 121 121 121 121 120 121 121 121 121
75 76 77 79 80 81 83 84 87 90 92 94 97 100 102 105 106 107 109 111 112 113 114 115 115 114 115 118 120 123 124 124 123 122 121 121 121 121 121 121 122 122 122 122 122 122 121 122 122 121 121 122
78 78 79 80 81 82 83 83 85 88 91 93 96 98 101 104 106 108 109 111 112 113 114 116 116 116 116 116 118 120 122 124 126 126 126 125 124 124 124 124 124 125 125 125 124 123 123 123 122 122 123 124
81 81 82 82 83 84 85 85 86 87 90 92 95 97 99 101 104 107 109 110 112 113 114 116 117 117 118 119 119 119 120 121 124 126 128 129 129 128 128 127 127 127 128 128 127 127 127 127 126 126 126 126
84 84 85 85 86 87 87 88 88 89 90 92 94 96 98 100 102 105 107 109 111 113 115 116 117 118 118 120 121 122 121 121 122 123 126 128 130 131 132 131 130 130 131 130 130 130 130 131 130 130 130 130
Wind_Direction
238 239 239 237 237 236 237 240 242 242 242 244 246 246 246 244 242 241 239 238 239 238 238 238 238 238 238 238 239 240 240 241 240 241 242 242 242 242 242 242 242 243 244 245 246 246 246 247 247 247 248 248
240 241 242 242 242 242 241 241 243 245 244 243 243 243 242 242 239 237 235 234 235 235 236 237 237 237 238 239 239 239 240 241 241 241 242 242 242 243 243 243 243 243 244 245 246 247 248 248 248 248 249 249
241 242 244 244 245 245 244 244 245 246 245 244 243 242 241 240 237 234 231 230 230 231 234 236 237 238 238 239 239 239 239 238 239 240 241 242 242 243 243 243 243 244 245 246 247 248 248 249 249 250 250 250
241 242 243 244 245 245 245 245 245 245 245 244 244 243 240 239 237 233 230 229 226 227 231 232 233 236 238 237 235 236 236 235 234 234 236 239 240 242 242 243 243 244 245 246 247 248 248 249 250 250 251 251
242 241 242 243 243 245 246 246 245 244 243 243 242 242 239 237 235 231 229 228 224 223 226 226 228 234 237 237 234 233 233 233 232 231 233 235 238 241 242 242 242 243 244 245 246 247 248 249 250 250 250 251
243 242 242 242 242 243 244 245 245 244 242 241 240 239 237 235 232 229 227 227 224 220 222 225 227 233 236 237 237 236 235 233 232 231 232 234 236 240 243 244 244 243 243 244 245 247 248 248 249 250 250 250
244 243 242 241 241 241 242 244 244 244 243 241 239 237 235 234 231 227 226 225 222 219 220 223 225 230 233 234 236 237 238 237 235 233 232 234 235 237 240 243 245 245 244 244 245 247 248 248 249 249 250 250
245 244 243 241 241 240 241 242 243 242 243 242 240 238 234 233 231 228 227 225 221 219 219 222 224 229 231 231 232 234 236 237 237 235 232 232 233 234 235 238 241 243 243 243 244 246 247 248 248 249 249 250
245 244 243 242 241 240 240 240 241 241 241 241 241 239 235 232 231 229 229 228 225 221 220 222 225 229 231 231 232 233 233 234 235 235 233 232 232 233 234 236 238 239 241 242 243 244 246 247 248 249 250 250
244 244 242 242 242 242 240 239 240 240 240 241 241 240 237 233 231 229 230 231 228 225 222 223 225 229 231 232 233 233 233 233 234 234 234 233 233 233 234 236 238 239 240 241 242 243 245 247 247 248 249 250
241 243 242 241 241 242 241 240 239 239 239 239 240 241 239 235 232 229 228 230 230 227 225 225 227 230 231 233 234 234 233 234 235 236 235 234 234 235 236 237 239 240 241 242 243 243 245 247 247 248 249 249
239 240 241 241 240 240 241 240 239 239 239 238 239 240 239 237 233 231 229 228 229 229 227 227 229 231 232 233 234 235 235 236 236 237 238 237 237 237 238 238 240 241 243 244 245 245 246 248 248 248 249 249
238 238 239 240 240 239 239 240 239 239 238 237 237 238 239 239 236 234 231 228 229 230 229 229 230 232 233 234 234 235 237 237 237 237 237 237 238 239 240 240 241 242 243 244 246 247 248 250 251 250 250 250
238 238 238 239 239 239 239 239 240 239 238 237 237 236 236 237 237 236 234 231 229 230 231 231 233 233 233 234 236 236 237 238 239 239 238 237 237 238 239 240 241 241 242 243 244 246 247 249 251 251 252 251
240 239 238 238 238 239 239 239 239 239 238 237 236 236 234 234 235 236 236 234 231 231 232 232 234 235 235 235 236 238 239 239 240 241 241 240 239 239 239 240 240 241 241 242 243 244 245 246 248 249 249 250
241 240 239 239 239 239 239 239 238 238 238 237 235 235 234 233 233 234 236 236 234 233 232 233 233 235 236 236 236 237 239 240 241 242 242 242 242 241 241 241 241 241 241 242 242 243 243 245 246 247 248 249
240 240 240 240 240 239 239 239 238 237 237 237 235 234 234 234 232 232 234 235 236 235 234 234 234 235 236 237 238 238 239 239 239 241 242 242 243 243 243 243 243 243 242 242 242 243 244 245 246 247 249 250
241 240 240 241 241 241 241 240 239 237 236 236 236 234 233 234 233 232 232 233 235 235 235 235 235 235 235 237 238 240 240 240 239 240 240 241 242 243 243 244 244 245 245 244 244 245 245 246 248 249 250 252
245 242 240 241 241 242 242 242 242 240 238 237 236 236 234 233 234 234 233 233 233 234 235 236 236 236 236 236 237 239 241 241 241 241 241 240 241 242 242 243 244 245 246 247 247 248 248 248 249 250 251 252
248 246 243 242 242 241 242 243 243 243 241 239 237 236 235 234 233 234 233 234 233 234 235 236 236 236 237 237 237 238 239 241 242 243 243 243 242 242 243 243 244 245 246 247 248 249 249 249 250 250 251 251
249 248 247 245 243 242 242 242 243 243 243 242 240 238 237 235 234 234 233 234 234 234 234 235 236 236 236 237 237 237 237 238 240 242 244 244 245 245 244 245 245 245 245 246 247 248 248 249 249 250 250 251
249 249 249 247 246 244 244 243 243 244 244 244 243 241 239 238 237 235 234 234 234 234 234 234 235 236 236 237 237 237 237 237 238 240 241 243 244 245 246 246 246 246 246 246 247 247 247 248 248 249 249 250
248 249 249 248 248 247 246 244 243 243 244 244 244 244 242 241 239 238 236 235 235 235 234 234 235 235 236 237 237 237 238 237 237 238 239 240 242 244 245 246 247 247 247 247 247 247 248 248 248 249 249 249
248 248 248 248 248 248 248 247 245 244 244 244 244 244 244 243 242 241 239 237 236 236 236 236 236 236 236 237 238 238 238 238 238 238 238 239 240 241 243 244 245 246 247 247 248 248 248 248 249 249 250 250
250 248 248 248 247 246 247 248 247 246 245 244 244 244 244 244 244 243 242 241 239 238 237 237 237 237 237 237 238 239 239 239 239 239 239 239 240 241 241 243 244 245 246 247 248 248 248 248 249 249 250 251
252 251 250 249 247 246 245 246 247 247 247 246 245 244 244 244 245 244 244 243 241 239 238 238 238 238 238 237 238 240 240 239 240 240 240 240 241 241 242 243 243 244 245 246 247 247 248 249 249 250 250 251
253 252 251 250 249 248 247 246 246 246 247 247 247 246 245 245 244 244 244 244 243 241 240 239 239 240 240 238 238 240 241 241 240 241 242 242 242 242 243 243 244 244 245 245 246 247 247 248 249 249 250 251
254 253 252 251 250 249 249 248 247 246 246 247 247 247 247 246 245 245 244 244 244 243 242 240 239 240 241 241 240 240 242 243 242 242 242 243 243 244 244 244 244 245 245 245 246 246 247 248 248 249 249 250
257 255 254 252 251 249 249 249 248 248 247 247 247 247 247 247 247 246 246 246 245 245 244 243 241 240 241 242 242 241 241 243 244 244 243 243 244 244 244 244 245 245 245 246 246 247 247 247 248 248 249 249
258 257 256 255 253 251 249 247 247 248 248 247 247 247 247 248 248 248 247 247 247 246 246 245 244 242 241 242 243 242 241 242 244 245 245 244 244 245 245 245 245 246 246 247 247 247 248 248 248 249 249 250
257 256 256 255 255 254 252 249 247 246 247 247 247 247 247 247 248 248 248 248 248 247 247 246 246 245 243 243 243 243 243 242 243 245 245 245 245 245 246 246 246 246 247 247 247 248 249 249 249 250 250 251
Height
10651 10648 10648 10649 10650 10652 10653 10652 10653 10657 10661 10662 10663 10664 10664 10664 10665 10666 10668 10670 10672 10674 10677 10680 10683 10686 10688 10690 10693 10695 10697 10700 10703 10706 10708 10711 10714 10717 10721 10724 10727 10729 10731 10733 10735 10737 10739 10742 10745 10748 10751 10753
10644 10641 10641 10643 10644 10645 10646 10647 10647 10650 10653 10655 10655 10657 10657 10658 10659 10661 10663 10664 10666 10669 10672 10675 10677 10681 10683 10685 10687 10689 10692 10694 10697 10699 10701 10704 10707 10710 10713 10716 10719 10722 10724 10726 10728 10729 10732 10734 10737 10740 10743 10746
10637 10636 10636 10638 10639 10639 10639 10641 10642 10644 10646 10648 10649 10651 10652 10653 10654 10656 10657 10659 10661 10664 10668 10671 10673 10676 10678 10680 10681 10683 10685 10688 10690 10693 10695 10697 10700 10703 10706 10709 10712 10714 10716 10718 10720 10722 10724 10727 10729 10732 10735 10738
10629 10630 10630 10633 10633 10632 10633 10635 10637 10638 10640 10643 10645 10647 10648 10649 10649 10650 10652 10654 10656 10659 10663 10666 10668 10672 10675 10676 10676 10677 10679 10681 10684 10686 10688 10691 10694 10696 10698 10701 10704 10706 10709 10711 10713 10715 10717 10719 10721 10723 10727 10730
10623 10624 10625 10627 10627 10626 10627 10629 10630 10632 10634 10637 10639 10641 10642 10644 10645 10646 10647 10649 10651 10654 10657 10660 10664 10667 10669 10670 10670 10671 10673 10675 10678 10680 10682 10684 10687 10689 10692 10695 10697 10699 10701 10704 10706 10708 10710 10711 10713 10716 10719 10722
10617 10618 10620 10621 10621 10621 10621 10622 10624 10625 10628 10631 10633 10634 10636 10638 10640 10641 10642 10644 10646 10649 10651 10655 10659 10661 10663 10664 10665 10666 10667 10669 10671 10673 10676 10678 10680 10684 10687 10689 10690 10692 10695 10697 10699 10701 10702 10703 10705 10708 10711 10714
10610 10612 10614 10615 10616 10615 10615 10615 10617 10619 10621 10624 10626 10627 10629 10632 10634 10635 10636 10638 10640 10642 10645 10648 10652 10654 10655 10657 10659 10660 10661 10663 10665 10667 10670 10672 10674 10677 10681 10682 10684 10686 10688 10691 10693 10694 10694 10695 10698 10700 10703 10706
10603 10606 10607 10608 10610 10609 10609 10610 10612 10613 10615 10617 10619 10621 10623 10625 10628 10629 10630 10631 10633 10635 10637 10640 10643 10646 10647 10649 10652 10654 10655 10657 10659 10661 10663 10665 10666 10669 10672 10673 10675 10677 10680 10682 10684 10686 10687 10688 10691 10693 10695 10698
10595 10598 10599 10602 10603 10603 10603 10604 10606 10606 10607 10610 10612 10615 10617 10619 10622 10624 10625 10626 10628 10629 10631 10633 10635 10638 10639 10642 10644 10646 10647 10650 10652 10654 10656 10658 10659 10661 10663 10664 10666 10668 10671 10673 10675 10677 10679 10682 10684 10685 10688 10690
10588 10589 10591 10595 10596 10597 10597 10598 10599 10598 10600 10604 10606 10609 10611 10612 10615 10617 10619 10621 10622 10623 10625 10627 10628 10630 10632 10634 10637 10639 10640 10642 10645 10647 10649 10651 10652 10653 10655 10657 10659 10661 10663 10665 10667 10670 10672 10675 10677 10678 10680 10682
10580 10580 10582 10586 10588 10589 10589 10589 10589 10589 10594 10598 10600 10603 10604 10605 10607 10610 10612 10614 10616 10617 10619 10620 10622 10623 10625 10628 10630 10632 10633 10635 10638 10640 10642 10644 10645 10647 10648 10650 10652 10654 10656 10658 10660 10662 10664 10667 10669 10670 10672 10674
10570 10571 10572 10576 10579 10580 10580 10581 10580 10581 10586 10591 10594 10595 10596 10597 10599 10602 10604 10606 10608 10609 10611 10613 10615 10617 10618 10621 10623 10624 10626 10628 10631 10633 10635 10637 10638 10640 10641 10643 10645 10647 10648 10650 10652 10654 10656 10658 10660 10662 10664 10666
10559 10561 10562 10565 10568 10569 10569 10570 10571 10573 10577 10582 10586 10587 10588 10590 10592 10594 10596 10598 10600 10601 10603 10605 10607 10609 10611 10613 10615 10617 10618 10621 10623 10624 10627 10629 10631 10633 10635 10636 10638 10640 10641 10642 10644 10645 10647 10649 10651 10653 10656 10658
10550 10551 10553 10555 10556 10557 10558 10560 10562 10565 10568 10572 10576 10579 10581 10582 10584 10586 10587 10590 10591 10592 10594 10596 10598 10599 10601 10604 10606 10608 10610 10613 10614 10616 10618 10620 10623 10625 10627 10628 10629 10631 10633 10635 10637 10639 10640 10642 10643 10645 10647 10650
10541 10543 10544 10544 10545 10547 10549 10551 10552 10555 10558 10561 10565 10569 10571 10573 10575 10576 10577 10580 10583 10584 10584 10586 10589 10590 10592 10594 10596 10599 10600 10603 10606 10607 10609 10611 10614 10616 10618 10619 10621 10623 10625 10627 10629 10631 10633 10634 10636 10638 10640 10642
10532 10535 10535 10535 10536 10536 10538 10539 10541 10545 10547 10549 10553 10557 10560 10563 10564 10565 10566 10569 10573 10575 10576 10577 10580 10581 10582 10585 10587 10589 10591 10594 10597 10598 10600 10602 10604 10607 10609 10610 10613 10615 10617 10619 10621 10623 10625 10626 10628 10629 10631 10633
10523 10526 10526 10526 10525 10525 10527 10528 10530 10533 10536 10538 10541 10545 10549 10551 10552 10554 10556 10558 10562 10566 10567 10568 10571 10572 10574 10577 10579 10581 10582 10585 10588 10589 10591 10593 10595 10597 10599 10600 10603 10605 10607 10609 10611 10614 10616 10618 10620 10621 10623 10625
10514 10516 10516 10515 10515 10518 10520 10520 10520 10523 10525 10527 10530 10534 10536 10539 10541 10544 10545 10547 10551 10555 10557 10559 10561 10564 10566 10569 10571 10573 10573 10575 10579 10580 10582 10584 10586 10588 10590 10591 10594 10596 10598 10600 10602 10605 10608 10610 10612 10613 10615 10617
10504 10507 10507 10506 10508 10512 10512 10511 10513 10516 10517 10518 10520 10523 10524 10528 10530 10531 10534 10536 10540 10544 10547 10549 10552 10554 10557 10560 10561 10563 10565 10567 10570 10571 10573 10576 10579 10580 10582 10584 10586 10588 10590 10592 10594 10596 10598 10601 10603 10604 10607 10608
10495 10497 10498 10498 10499 10501 10500 10501 10505 10507 10508 10508 10510 10511 10512 10516 10516 10518 10522 10525 10529 10534 10536 10539 10541 10544 10546 10549 10551 10552 10555 10558 10561 10562 10563 10567 10570 10572 10574 10576 10578 10581 10582 10583 10585 10587 10589 10591 10592 10595 10597 10599
10485 10486 10488 10489 10490 10492 10491 10493 10496 10496 10496 10497 10498 10500 10501 10503 10503 10506 10510 10512 10515 10520 10523 10526 10529 10532 10535 10537 10538 10540 10544 10548 10550 10551 10552 10555 10559 10561 10564 10566 10568 10571 10572 10572 10574 10576 10578 10580 10581 10586 10587 10589
10475 10476 10476 10478 10480 10483 10483 10485 10487 10485 10486 10487 10487 10491 10493 10492 10493 10496 10498 10499 10502 10506 10509 10512 10515 10518 10521 10523 10524 10528 10532 10535 10538 10539 10539 10543 10546 10548 10551 10553 10554 10558 10560 10560 10562 10564 10566 10568 10570 10575 10576 10578
10466 10467 10465 10467 10470 10472 10471 10473 10476 10475 10476 10476 10477 10481 10482 10480 10482 10485 10485 10487 10491 10494 10497 10500 10502 10506 10509 10509 10511 10515 10518 10521 10523 10524 10526 10530 10534 10536 10538 10539 10540 10544 10546 10546 10548 10550 10554 10556 10559 10563 10565 10566
10457 10457 10454 10456 10460 10461 10460 10460 10462 10464 10464 10465 10467 10469 10468 10468 10471 10473 10474 10478 10482 10485 10487 10489 10492 10494 10496 10497 10498 10502 10504 10506 10508 10510 10513 10517 10519 10522 10524 10525 10527 10530 10533 10533 10535 10539 10543 10545 10547 10551 10553 10555
10446 10446 10445 10445 10448 10449 10448 10447 10449 10452 10453 10453 10454 10455 10455 10457 10460 10462 10464 10468 10471 10474 10476 10478 10480 10482 10484 10486 10487 10489 10490 10492 10495 10497 10500 10503 10506 10509 10511 10513 10515 10518 10521 10521 10524 10527 10529 10531 10535 10539 10542 10544
10434 10434 10433 10434 10435 10435 10436 10436 10437 10439 10439 10439 10441 10444 10445 10447 10448 10449 10451 10452 10455 10459 10462 10464 10467 10468 10470 10474 10477 10476 10476 10479 10483 10485 10488 10492 10495 10497 10500 10502 10504 10506 10508 10509 10511 10513 10516 10521 10525 10528 10531 10532
10422 10421 10421 10421 10422 10423 10424 10426 10427 10426 10426 10427 10429 10431 10432 10432 10433 10434 10435 10436 10439 10442 10445 10449 10453 10455 10456 10462 10466 10465 10464 10468 10473 10476 10478 10481 10483 10486 10489 10491 10492 10493 10494 10495 10496 10500 10505 10509 10510 10514 10518 10520
10409 10409 10408 10409 10410 10411 10413 10415 10415 10414 10415 10416 10416 10416 10417 10417 10418 10420 10421 10423 10425 10427 10430 10434 10440 10443 10444 10448 10454 10455 10455 10458 10462 10465 10467 10469 10472 10474 10477 10478 10479 10479 10479 10482 10484 10488 10492 10493 10496 10502 10505 10503
10396 10397 10396 10396 10397 10399 10400 10402 10402 10402 10403 10404 10403 10403 10403 10403 10404 10407 10408 10410 10412 10415 10417 10419 10425 10431 10432 10434 10438 10442 10444 10445 10445 10448 10453 10456 10458 10459 10461 10463 10465 10465 10466 10470 10472 10475 10477 10479 10484 10488 10486 10485
10383 10383 10384 10383 10383 10384 10386 10388 10388 10388 10388 10389 10390 10390 10390 10391 10392 10393 10394 10396 10399 10401 10403 10405 10409 10415 10418 10419 10422 10425 10429 10432 10432 10434 10437 10440 10442 10444 10446 10449 10453 10454 10454 10457 10461 10463 10464 10466 10470 10471 10471 10473
10370 10370 10370 10370 10370 10369 10371 10373 10374 10374 10374 10375 10375 10376 10377 10379 10378 10378 10380 10382 10384 10385 10387 10390 10392 10397 10402 10405 10407 10409 10414 10419 10420 10419 10420 10422 10426 10429 10430 10433 10439 10440 10439 10444 10449 10450 10450 10452 10456 10458 10459 10462